Regional Weather Roundup
Issued by NWS Goodland, KS

Home | Current Version | Previous Version | Graphics & Text | Print | Product List | Glossary On
Versions: 1 2 3 4 5 6 7 8 9 10 11 12 13 14 15 16 17 18 19 20 21 22 23 24 25 26 27 28 29 30 31 32 33 34 35 36 37 38 39 40 41 42 43 44 45 46 47 48 49 50
000
ASUS43 KGLD 310559
RWRGLD

GOODLAND FORECAST AREA HOURLY WEATHER ROUNDUP
NATIONAL WEATHER SERVICE GOODLAND KS
1200 AM MDT MON AUG 31 2015

...OFFICIAL OBSERVATIONS...

CITY           SKY/WX    TMP DP  RH WIND       PRES   REMARKS
GOODLAND KS    CLEAR     64  47  53 S13       29.99R
HILL CITY KS   FAIR      67  60  78 S6        29.97R
IMPERIAL NEB   CLEAR     72  44  36 S17       29.93S
MCCOOK NEB     CLEAR     67  52  58 S9        29.94R
AKRON CO       CLEAR     71  47  42 S17G25    29.97S
BURLINGTON CO  CLEAR     65  47  52 S14       30.01S
LIMON CO       CLEAR     60  47  61 SE9       30.04F
$$

...UNOFFICIAL OBSERVATIONS...

CITY           SKY/WX    TMP DP  RH WIND       PRES   REMARKS
COLBY KS       CLEAR     66  54  63 SE15      30.00R
LENORA KS        N/A     64  32  30 MISG        N/A
NORTON KS      CLEAR     63  55  77 SE7       29.95S
TRENTON NEB      N/A     69  32  25 S12         N/A
YUMA CO          N/A     69  46  43 CALM        N/A
$$


USA.gov is the U.S. government's official web portal to all federal, state and local government web resources and services.